Погода в Убеде

Испания     38°00′53″N   3°22′18″W
темп.,
°C
ветер,
м/с
пор.,
м/с
влажн.,
%
обл.,
%
осадки,
мм/ч
давл.,
гПа
погр.,
м
18 мая, вт
вт1823:00+20зсз11395 0.0 101812
02:00+18ссв1143100 0.0 101811
05:00+16сз114748 0.0 101811
08:00+17зюз11505 0.0 101911
11:00+23з233241 0.0 1020777
14:00+27з56245 0.0 10181793
17:00+29з56215 0.0 10172089
20:00+28з472324 0.0 1016900
19 мая, ср
ср1923:00+21з1139100 0.0 101812
02:00+19сз114475 0.0 101911
05:00+17ссз225172 0.0 101911
08:00+17ссв11584 0.0 102022
11:00+23с104118 0.0 1019639
14:00+29зсз2326100 0.0 10181702
17:00+31зсз44161 0.0 10162155
20:00+29з45193 0.0 1016379
20 мая, чт
чт2023:00+22ссв333361 0.0 101925
02:00+18юв225250 0.0 102023
05:00+17вюв227314 0.0 102019
08:00+17юв23755 0.0 102199
11:00+24ююв234666 0.0 1021796
14:00+30ююз22265 0.0 10191840
17:00+32зсз322078 0.0 10162409
20:00+30зсз332384 0.0 1016811
21 мая, пт
пт2123:00+23зюз223454 0.0 101832
02:00+20ююв225268 0.0 101920
05:00+18ююз116128 0.0 101812
08:00+18з01595 0.0 101839
11:00+24юз124178 0.0 1018684
14:00+30зсз333197 0.0 10151565
17:00+32зсз662444 0.0 10132083
20:00+30з682231 0.0 10121446
22 мая, сб
сб2223:00+23ю11328 0.0 101311
02:00+21зсз3443100 0.0 101463
05:00+18зсз22535 0.0 101420
08:00+18ююз115086 0.0 101533
11:00+23юз12335 0.0 1015606
14:00+29зюз241816 0.0 10131636
17:00+32зсз671394 0.0 10102172
20:00+29зсз5716100 0.0 10101342